Location: Wald
(31.7579°N, 86.6655°W)
Time: 21:17:15
(UTC+00:00)

COSMOS 2487 - Pass Details

Date: 14 July 2020
Orbit: 441 x 443 km, 74.7° (Epoch: 13 August)

Event Time Altitude Azimuth Distance (km) Brightness Sun altitude
Exits shadow 09:35:52 - 170° (S) 1,723 5.1 -14.5°
Reaches altitude 10° 09:36:18 10° 167° (SSE) 1,551 4.9 -14.4°
Maximum altitude 09:39:24 33° 102° (ESE) 766 4.0 -13.9°
Drops below altitude 10° 09:42:31 10° 36° (NE) 1,560 6.4 -13.4°
Sets 09:44:43 0° 27° (NNE) 2,434 7.3 -13.0°
